Weather History for Zapata, TX

Change the Weather History Date:

Saturday, January 18, 2014

  Actual Average (KLRD) Record (KLRD)
Temperature  
Mean Temperature 58 °F 57 °F  
Max Temperature 73 °F 67 °F 98 °F (1914)
Min Temperature 42 °F 46 °F 22 °F (1930)
Degree Days  
Heating Degree Days 8 9  
Month to date heating degree days 178  
Since 1 July heating degree days 568  
Cooling Degree Days 0 1  
Month to date cooling degree days 18  
Year to date cooling degree days 18  
Growing Degree Days 8 (Base 50)    
Moisture  
Dew Point 45 °F    
Average Humidity 53    
Maximum Humidity 85    
Minimum Humidity 37    
Precipitation  
Precipitation 0.00 in 0.03 in 0.82 in (1932)
Month to date precipitation 0.52  
Year to date precipitation 0.52  
Sea Level Pressure  
Sea Level Pressure 30.13 in    
Wind  
Wind Speed 3 mph (South)    
Max Wind Speed 10 mph    
Max Gust Speed 16 mph    
Visibility 10 miles    
Events      
T = Trace of Precipitation, MM = Missing Value Source: NWS Daily Summary

Daily Weather History Graph

Daily Weather History Graph

Search for Another Location

Airport:

Trip Planner

Search our weather history database for the weather conditions in past years. The results will help you decide how hot, cold, wet, or windy it might be!

Date:

Astronomy

Jan. 18, 2014 Rise Set
Actual Time 7:27 AM CST 6:08 PM CST
Civil Twilight 7:02 AM CST 6:32 PM CST
Nautical Twilight 6:33 AM CST 7:01 PM CST
Astronomical Twilight 6:05 AM CST 7:29 PM CST
Moon 8:32 PM CST (1/18) 8:44 AM CST (1/18)
Length of Visible Light 11h 30m
Length of Day
10h 40m
Waning Gibbous, 94% of the Moon is Illuminated
Jan 18
Waning Gibbous
Jan 23
Last Quarter
Jan 30
New
Feb 6
First Quarter
Feb 14
Full

Hourly Weather History & Observations

Time (CST) Temp. Dew Point Humidity Pressure Visibility Wind Dir Wind Speed Gust Speed Precip Events Conditions
8:15 AM 42.6 °F 38.3 °F 85% 30.20 in 10.0 mi Calm Calm - N/A   Scattered Clouds
8:35 AM 47.8 °F 38.1 °F 69% 30.21 in 10.0 mi Calm Calm - N/A   Scattered Clouds
8:55 AM 52.0 °F 39.2 °F 62% 30.21 in 10.0 mi Calm Calm - N/A   Clear
9:15 AM 55.6 °F 40.5 °F 57% 30.22 in 10.0 mi Calm Calm - N/A   Scattered Clouds
9:35 AM 57.4 °F 41.4 °F 55% 30.23 in 10.0 mi Calm Calm - N/A   Mostly Cloudy
9:55 AM 59.2 °F 42.1 °F 53% 30.23 in 10.0 mi SSE 3.5 mph - N/A   Scattered Clouds
10:15 AM 60.8 °F 43.2 °F 52% 30.23 in 10.0 mi SE 6.9 mph - N/A   Clear
10:35 AM 61.3 °F 43.7 °F 52% 30.22 in 10.0 mi SSE 3.5 mph - N/A   Clear
10:55 AM 64.6 °F 45.5 °F 50% 30.21 in 10.0 mi SSE 4.6 mph - N/A   Clear
11:15 AM 65.7 °F 47.8 °F 53% 30.20 in 10.0 mi SSE 6.9 mph - N/A   Clear
11:35 AM 67.1 °F 49.1 °F 52% 30.19 in 10.0 mi South 6.9 mph - N/A   Clear
11:55 AM 68.0 °F 48.4 °F 49% 30.17 in 10.0 mi South 6.9 mph - N/A   Clear
12:15 PM 68.5 °F 48.7 °F 49% 30.16 in 10.0 mi SSE 8.1 mph - N/A   Clear
12:35 PM 69.6 °F 49.3 °F 48% 30.14 in 10.0 mi South 9.2 mph - N/A   Clear
12:55 PM 70.2 °F 48.7 °F 46% 30.12 in 10.0 mi South 6.9 mph - N/A   Clear
1:15 PM 70.9 °F 47.3 °F 43% 30.11 in 10.0 mi South 10.4 mph - N/A   Clear
1:35 PM 71.1 °F 46.4 °F 41% 30.10 in 10.0 mi South 6.9 mph - N/A   Clear
1:55 PM 71.4 °F 46.4 °F 41% 30.09 in 10.0 mi South 8.1 mph 16.1 mph N/A   Clear
2:15 PM 72.3 °F 45.7 °F 39% 30.08 in 10.0 mi SSW 10.4 mph 16.1 mph N/A   Clear
2:35 PM 72.5 °F 45.7 °F 38% 30.08 in 10.0 mi SSW 9.2 mph 16.1 mph N/A   Clear
2:55 PM 73.2 °F 46.6 °F 39% 30.07 in 10.0 mi South 8.1 mph - N/A   Clear
3:15 PM 73.0 °F 46.6 °F 39% 30.07 in 10.0 mi SSW 6.9 mph - N/A   Clear
3:35 PM 73.6 °F 46.0 °F 37% 30.07 in 10.0 mi SW 4.6 mph - N/A   Clear
3:55 PM 73.2 °F 45.9 °F 38% 30.07 in 10.0 mi SW 6.9 mph - N/A   Clear
4:15 PM 73.8 °F 46.0 °F 37% 30.07 in 10.0 mi SW 5.8 mph - N/A   Clear
4:35 PM 73.2 °F 46.2 °F 38% 30.07 in 10.0 mi SW 3.5 mph - N/A   Clear
4:55 PM 73.4 °F 45.7 °F 37% 30.08 in 10.0 mi SSW 5.8 mph - N/A   Clear
5:15 PM 72.7 °F 45.9 °F 38% 30.08 in 10.0 mi South 4.6 mph - N/A   Clear
5:35 PM 71.6 °F 45.7 °F 39% 30.08 in 10.0 mi Calm Calm - N/A   Clear
5:55 PM 70.0 °F 45.7 °F 42% 30.08 in 10.0 mi Calm Calm - N/A   Clear
6:15 PM 67.6 °F 45.9 °F 46% 30.09 in 10.0 mi Calm Calm - N/A   Clear
6:35 PM 65.5 °F 46.0 °F 49% 30.10 in 10.0 mi Calm Calm - N/A   Clear
6:55 PM 59.9 °F 45.9 °F 60% 30.10 in 10.0 mi Calm Calm - N/A   Clear
7:15 PM 59.0 °F 46.2 °F 63% 30.11 in 10.0 mi Calm Calm - N/A   Clear
7:35 PM 56.3 °F 45.1 °F 66% 30.11 in 10.0 mi Calm Calm - N/A   Clear
7:55 PM 54.0 °F 43.7 °F 68% 30.12 in 10.0 mi Calm Calm - N/A   Clear
8:15 PM 51.4 °F 42.3 °F 71% 30.12 in 10.0 mi Calm Calm - N/A   Clear
8:35 PM 53.2 °F 44.4 °F 72% 30.13 in 10.0 mi Calm Calm - N/A   Clear
8:55 PM 50.9 °F 43.5 °F 76% 30.14 in 10.0 mi Calm Calm - N/A   Clear
9:15 PM 49.8 °F 42.3 °F 75% 30.14 in 10.0 mi Calm Calm - N/A   Clear
9:35 PM 48.9 °F 41.2 °F 75% 30.14 in 10.0 mi Calm Calm - N/A   Clear
11:35 PM 46.9 °F 40.6 °F 79% 30.17 in 10.0 mi North 3.5 mph - N/A   Clear
11:55 PM 50.5 °F 44.8 °F 81% 30.17 in 10.0 mi Calm Calm - N/A   Clear